Starlink 30892

operational
NORAD ID: 58366 Int'l Des: 2023-177 Owner: SPXS Country: US Constellation: starlink
LEOCIRCULAR

Starlink 30892について

説明を読み込み中...

リアルタイム位置

3D地球を読み込み中...

次回通過

高度履歴

Altitude vs Time

uPlot chart will show altitude changes over time

軌道要素

1 58366U 23177R 25304.78432229 .00000598 00000-0 59367-4 0 9995
2 58366 43.0044 332.1462 0001162 272.6848 87.3862 15.02535120108831
Epoch: Oct 31, 2025 • Age: 21 hours

現在のステータス

高度 567.3 km
速度 7.58 km/s
衛星直下点 -32.25°S, 13.99°E
打ち上げ日 Nov 18, 2023
運用期間 1.9 years
タイプ internet

技術仕様

分類 Payload
質量 730.00 kg
乾燥質量 700.00 kg
総質量 730.00 kg
長さ 0.30 m
直径 4.10 m
スパン 29.00 m
形状 Box + pan
製造者 SPXS
バスタイプ Starlink V2M
フェーズステータス In Orbit
所有者/国 SPXS/US

大規模コンステレーション

Loading constellations...